Find Starlink 34858

NORAD ID: 65023 Int'l Des: 2025-161 Owner: SPXS Country: US Constellation: starlink operational
LEOCIRCULAR

当前视图

正在加载3D地球...

About Starlink 34858

Starlink 34858 (NORAD 65023) is a starlink constellation satellite (v2 mini) launched Jul 30, 2025 by SPXS of US. It operates in LEO, CIRCULAR orbit with a mass of 575.00 kg.

即将过境

Passes for default location (London). Set your location on the main map for personalized predictions.

高度历史

Loading altitude history...

两行轨道根数

1 65023U 25161J 26236.27584436 .00020121 00000-0 60490-3 0 9997
2 65023 53.1562 234.6781 0001999 92.4666 267.6566 15.34406794 60997
Epoch: Aug 24, 2026 • Age: 20 hours

当前状态

高度 467.3 km
远地点 / 近地点 N/A
速度 7.63 km/s
星下点 -15.34°S, 157.33°W
发射日期 Jul 30, 2025
运行时间 1 year
类型 internet

技术详情

分类 Payload
质量 575.00 kg
干质量 530.00 kg
总质量 575.00 kg
长度 0.30 m
直径 4.10 m
跨度 29.00 m
形状 Box + pan
制造商 SPXS
平台类型 Starlink V2MO
阶段状态 In Orbit
所有者/国家 SPXS/US

Most Searched